Wetterdaten: Samstag, 01.06.2013
Datum Zeit Temperatur Luftfeuchte Luftdruck Regen Wind Richtung Richtung Sonnenschein ET UV Solar Taupunkt Windchill Windben
01.06.2013 00:00 15,1 C 77 % 1008,0 hPa 0,0 l/m 3,6 km/h (1 Bft) NW 311 0 min 0,000 mm 0,0 UV-I 0 W/m 11,1 C 15,1 C 11,3 km/h (2 Bft)
01.06.2013 00:05 15,0 C 78 % 1008,0 hPa 0,0 l/m 5,6 km/h (1 Bft) W-NW 302 0 min 0,000 mm 0,0 UV-I 0 W/m 11,2 C 15,0 C 12,9 km/h (3 Bft)
01.06.2013 00:10 14,9 C 78 % 1007,9 hPa 0,0 l/m 5,9 km/h (2 Bft) W-NW 297 0 min 0,000 mm 0,0 UV-I 0 W/m 11,1 C 14,9 C 14,5 km/h (3 Bft)
01.06.2013 00:15 14,8 C 79 % 1008,0 hPa 0,0 l/m 7,8 km/h (2 Bft) NW 308 0 min 0,000 mm 0,0 UV-I 0 W/m 11,2 C 14,0 C 16,1 km/h (3 Bft)
01.06.2013 00:20 14,7 C 79 % 1008,0 hPa 0,0 l/m 8,7 km/h (2 Bft) NW 306 0 min 0,000 mm 0,0 UV-I 0 W/m 11,1 C 13,4 C 17,7 km/h (3 Bft)
01.06.2013 00:25 14,7 C 79 % 1007,9 hPa 0,0 l/m 8,2 km/h (2 Bft) NW 318 0 min 0,000 mm 0,0 UV-I 0 W/m 11,1 C 13,7 C 17,7 km/h (3 Bft)
01.06.2013 00:30 14,6 C 80 % 1008,1 hPa 0,0 l/m 7,4 km/h (2 Bft) W-NW 296 0 min 0,000 mm 0,0 UV-I 0 W/m 11,2 C 14,0 C 16,1 km/h (3 Bft)
01.06.2013 00:35 14,6 C 80 % 1008,2 hPa 0,0 l/m 7,3 km/h (2 Bft) W-NW 302 0 min 0,000 mm 0,0 UV-I 0 W/m 11,2 C 14,1 C 16,1 km/h (3 Bft)
01.06.2013 00:40 14,6 C 80 % 1008,2 hPa 0,0 l/m 7,2 km/h (2 Bft) W-NW 287 0 min 0,000 mm 0,0 UV-I 0 W/m 11,2 C 14,1 C 16,1 km/h (3 Bft)
01.06.2013 00:45 14,5 C 80 % 1008,4 hPa 0,0 l/m 6,1 km/h (2 Bft) W 259 0 min 0,000 mm 0,0 UV-I 0 W/m 11,1 C 14,5 C 16,1 km/h (3 Bft)
01.06.2013 00:50 14,6 C 81 % 1008,4 hPa 0,0 l/m 7,2 km/h (2 Bft) W 270 0 min 0,000 mm 0,0 UV-I 0 W/m 11,4 C 14,1 C 16,1 km/h (3 Bft)
01.06.2013 00:55 14,6 C 81 % 1008,3 hPa 0,0 l/m 7,8 km/h (2 Bft) W-NW 297 0 min 0,000 mm 0,0 UV-I 0 W/m 11,4 C 13,8 C 16,1 km/h (3 Bft)
01.06.2013 01:00 14,6 C 81 % 1008,3 hPa 0,0 l/m 5,4 km/h (1 Bft) W 275 0 min 0,000 mm 0,0 UV-I 0 W/m 11,4 C 14,6 C 14,5 km/h (3 Bft)
01.06.2013 01:05 14,6 C 81 % 1008,2 hPa 0,0 l/m 4,8 km/h (1 Bft) W 269 0 min 0,025 mm 0,0 UV-I 0 W/m 11,4 C 14,6 C 11,3 km/h (2 Bft)
01.06.2013 01:10 14,5 C 81 % 1008,2 hPa 0,0 l/m 3,7 km/h (1 Bft) NW 313 0 min 0,000 mm 0,0 UV-I 0 W/m 11,3 C 14,5 C 9,7 km/h (2 Bft)
01.06.2013 01:15 14,4 C 82 % 1008,3 hPa 0,0 l/m 3,6 km/h (1 Bft) W-NW 288 0 min 0,000 mm 0,0 UV-I 0 W/m 11,4 C 14,4 C 9,7 km/h (2 Bft)
01.06.2013 01:20 14,4 C 82 % 1008,3 hPa 0,0 l/m 3,3 km/h (1 Bft) W 280 0 min 0,000 mm 0,0 UV-I 0 W/m 11,4 C 14,4 C 8,0 km/h (2 Bft)
01.06.2013 01:25 14,4 C 83 % 1008,3 hPa 0,0 l/m 3,1 km/h (1 Bft) W-NW 289 0 min 0,000 mm 0,0 UV-I 0 W/m 11,5 C 14,4 C 8,0 km/h (2 Bft)
01.06.2013 01:30 14,4 C 83 % 1008,3 hPa 0,0 l/m 4,0 km/h (1 Bft) W-NW 289 0 min 0,000 mm 0,0 UV-I 0 W/m 11,5 C 14,4 C 8,0 km/h (2 Bft)
01.06.2013 01:35 14,4 C 83 % 1008,5 hPa 0,0 l/m 5,2 km/h (1 Bft) W-NW 292 0 min 0,000 mm 0,0 UV-I 0 W/m 11,5 C 14,4 C 16,1 km/h (3 Bft)
01.06.2013 01:40 14,4 C 83 % 1008,5 hPa 0,0 l/m 5,0 km/h (1 Bft) W-NW 284 0 min 0,000 mm 0,0 UV-I 0 W/m 11,5 C 14,4 C 11,3 km/h (2 Bft)
01.06.2013 01:45 14,5 C 83 % 1008,4 hPa 0,0 l/m 5,4 km/h (1 Bft) W-NW 290 0 min 0,000 mm 0,0 UV-I 0 W/m 11,6 C 14,5 C 9,7 km/h (2 Bft)
01.06.2013 01:50 14,4 C 83 % 1008,4 hPa 0,0 l/m 6,5 km/h (2 Bft) W 274 0 min 0,000 mm 0,0 UV-I 0 W/m 11,5 C 14,4 C 11,3 km/h (2 Bft)
01.06.2013 01:55 14,4 C 83 % 1008,4 hPa 0,0 l/m 5,8 km/h (2 Bft) W 271 0 min 0,000 mm 0,0 UV-I 0 W/m 11,5 C 14,4 C 16,1 km/h (3 Bft)
01.06.2013 02:00 14,4 C 83 % 1008,4 hPa 0,0 l/m 5,2 km/h (1 Bft) NW 317 0 min 0,000 mm 0,0 UV-I 0 W/m 11,5 C 14,4 C 16,1 km/h (3 Bft)
01.06.2013 02:05 14,4 C 83 % 1008,4 hPa 0,0 l/m 3,9 km/h (1 Bft) W-NW 296 0 min 0,026 mm 0,0 UV-I 0 W/m 11,5 C 14,4 C 8,0 km/h (2 Bft)
01.06.2013 02:10 14,4 C 83 % 1008,4 hPa 0,0 l/m 5,4 km/h (1 Bft) W 281 0 min 0,000 mm 0,0 UV-I 0 W/m 11,5 C 14,4 C 11,3 km/h (2 Bft)
01.06.2013 02:15 14,4 C 83 % 1008,2 hPa 0,0 l/m 4,5 km/h (1 Bft) W-NW 292 0 min 0,000 mm 0,0 UV-I 0 W/m 11,5 C 14,4 C 12,9 km/h (3 Bft)
01.06.2013 02:20 14,4 C 83 % 1008,2 hPa 0,0 l/m 6,6 km/h (2 Bft) W-NW 299 0 min 0,000 mm 0,0 UV-I 0 W/m 11,5 C 14,3 C 19,3 km/h (3 Bft)
01.06.2013 02:25 14,4 C 83 % 1008,2 hPa 0,0 l/m 6,2 km/h (2 Bft) NW 313 0 min 0,000 mm 0,0 UV-I 0 W/m 11,5 C 14,4 C 20,9 km/h (4 Bft)
01.06.2013 02:30 14,3 C 84 % 1008,2 hPa 0,0 l/m 3,1 km/h (1 Bft) NW 308 0 min 0,000 mm 0,0 UV-I 0 W/m 11,6 C 14,3 C 11,3 km/h (2 Bft)
01.06.2013 02:35 14,3 C 84 % 1008,3 hPa 0,0 l/m 4,2 km/h (1 Bft) W 280 0 min 0,000 mm 0,0 UV-I 0 W/m 11,6 C 14,3 C 16,1 km/h (3 Bft)
01.06.2013 02:40 14,3 C 84 % 1008,3 hPa 0,0 l/m 3,2 km/h (1 Bft) W-NW 300 0 min 0,000 mm 0,0 UV-I 0 W/m 11,6 C 14,3 C 8,0 km/h (2 Bft)
01.06.2013 02:45 14,3 C 84 % 1008,3 hPa 0,0 l/m 4,3 km/h (1 Bft) W-NW 282 0 min 0,000 mm 0,0 UV-I 0 W/m 11,6 C 14,3 C 11,3 km/h (2 Bft)
01.06.2013 02:50 14,3 C 84 % 1008,2 hPa 0,0 l/m 5,1 km/h (1 Bft) W-NW 297 0 min 0,000 mm 0,0 UV-I 0 W/m 11,6 C 14,3 C 11,3 km/h (2 Bft)
01.06.2013 02:55 14,3 C 84 % 1008,2 hPa 0,0 l/m 5,8 km/h (2 Bft) W-NW 284 0 min 0,000 mm 0,0 UV-I 0 W/m 11,6 C 14,3 C 12,9 km/h (3 Bft)
01.06.2013 03:00 14,3 C 84 % 1008,1 hPa 0,0 l/m 6,0 km/h (2 Bft) NW 309 0 min 0,000 mm 0,0 UV-I 0 W/m 11,6 C 14,3 C 11,3 km/h (2 Bft)
01.06.2013 03:05 14,3 C 84 % 1008,2 hPa 0,0 l/m 7,8 km/h (2 Bft) NW 315 0 min 0,025 mm 0,0 UV-I 0 W/m 11,6 C 13,5 C 17,7 km/h (3 Bft)
01.06.2013 03:10 14,2 C 84 % 1008,1 hPa 0,0 l/m 6,7 km/h (2 Bft) NW 312 0 min 0,000 mm 0,0 UV-I 0 W/m 11,5 C 14,0 C 12,9 km/h (3 Bft)
01.06.2013 03:15 14,2 C 84 % 1008,1 hPa 0,0 l/m 9,7 km/h (2 Bft) W-NW 286 0 min 0,000 mm 0,0 UV-I 0 W/m 11,5 C 12,4 C 20,9 km/h (4 Bft)
01.06.2013 03:20 14,2 C 84 % 1008,2 hPa 0,0 l/m 7,4 km/h (2 Bft) NW 307 0 min 0,000 mm 0,0 UV-I 0 W/m 11,5 C 13,6 C 19,3 km/h (3 Bft)
01.06.2013 03:25 14,2 C 84 % 1008,2 hPa 0,0 l/m 6,3 km/h (2 Bft) NW 319 0 min 0,000 mm 0,0 UV-I 0 W/m 11,5 C 14,2 C 12,9 km/h (3 Bft)
01.06.2013 03:30 14,1 C 84 % 1008,3 hPa 0,0 l/m 9,2 km/h (2 Bft) W-NW 297 0 min 0,000 mm 0,0 UV-I 0 W/m 11,4 C 12,5 C 20,9 km/h (4 Bft)
01.06.2013 03:35 14,1 C 84 % 1008,3 hPa 0,0 l/m 9,5 km/h (2 Bft) W-NW 300 0 min 0,000 mm 0,0 UV-I 0 W/m 11,4 C 12,4 C 17,7 km/h (3 Bft)
01.06.2013 03:40 14,0 C 85 % 1008,4 hPa 0,0 l/m 8,6 km/h (2 Bft) NW 315 0 min 0,000 mm 0,0 UV-I 0 W/m 11,5 C 12,7 C 16,1 km/h (3 Bft)
01.06.2013 03:45 13,9 C 85 % 1008,5 hPa 0,0 l/m 6,9 km/h (2 Bft) W-NW 293 0 min 0,000 mm 0,0 UV-I 0 W/m 11,4 C 13,6 C 14,5 km/h (3 Bft)
01.06.2013 03:50 13,9 C 85 % 1008,5 hPa 0,0 l/m 7,2 km/h (2 Bft) W-NW 289 0 min 0,000 mm 0,0 UV-I 0 W/m 11,4 C 13,4 C 17,7 km/h (3 Bft)
01.06.2013 03:55 13,8 C 85 % 1008,5 hPa 0,0 l/m 6,7 km/h (2 Bft) W-NW 294 0 min 0,000 mm 0,0 UV-I 0 W/m 11,3 C 13,6 C 16,1 km/h (3 Bft)
01.06.2013 04:00 13,8 C 85 % 1008,6 hPa 0,0 l/m 6,2 km/h (2 Bft) NW 305 0 min 0,000 mm 0,0 UV-I 0 W/m 11,3 C 13,8 C 14,5 km/h (3 Bft)
01.06.2013 04:05 13,7 C 86 % 1008,5 hPa 0,0 l/m 6,1 km/h (2 Bft) W-NW 282 0 min 0,026 mm 0,0 UV-I 0 W/m 11,4 C 13,7 C 12,9 km/h (3 Bft)
01.06.2013 04:10 13,7 C 86 % 1008,5 hPa 0,0 l/m 8,9 km/h (2 Bft) W 276 0 min 0,000 mm 0,0 UV-I 0 W/m 11,4 C 12,2 C 19,3 km/h (3 Bft)
01.06.2013 04:15 13,6 C 86 % 1008,5 hPa 0,0 l/m 7,8 km/h (2 Bft) W-NW 294 0 min 0,000 mm 0,0 UV-I 0 W/m 11,3 C 12,7 C 14,5 km/h (3 Bft)
01.06.2013 04:20 13,5 C 86 % 1008,6 hPa 0,0 l/m 6,8 km/h (2 Bft) W-NW 294 0 min 0,000 mm 0,0 UV-I 0 W/m 11,2 C 13,3 C 16,1 km/h (3 Bft)
01.06.2013 04:25 13,4 C 86 % 1008,6 hPa 0,0 l/m 9,1 km/h (2 Bft) W 273 0 min 0,000 mm 0,0 UV-I 0 W/m 11,1 C 11,8 C 22,5 km/h (4 Bft)
01.06.2013 04:30 13,4 C 86 % 1008,6 hPa 0,0 l/m 8,3 km/h (2 Bft) W-SW 254 0 min 0,000 mm 0,0 UV-I 0 W/m 11,1 C 12,2 C 17,7 km/h (3 Bft)
01.06.2013 04:35 13,3 C 87 % 1008,7 hPa 0,0 l/m 9,5 km/h (2 Bft) W 277 0 min 0,000 mm 0,0 UV-I 0 W/m 11,2 C 11,5 C 17,7 km/h (3 Bft)
01.06.2013 04:40 13,3 C 86 % 1008,7 hPa 0,0 l/m 13,5 km/h (3 Bft) NW 309 0 min 0,000 mm 0,0 UV-I 0 W/m 11,0 C 9,7 C 24,1 km/h (4 Bft)
01.06.2013 04:45 13,3 C 86 % 1008,7 hPa 0,0 l/m 10,5 km/h (2 Bft) NW 323 0 min 0,000 mm 0,0 UV-I 0 W/m 11,0 C 11,0 C 20,9 km/h (4 Bft)
01.06.2013 04:50 13,2 C 86 % 1008,8 hPa 0,0 l/m 9,1 km/h (2 Bft) W 275 0 min 0,000 mm 0,0 UV-I 0 W/m 10,9 C 11,6 C 22,5 km/h (4 Bft)
01.06.2013 04:55 13,2 C 86 % 1008,9 hPa 0,0 l/m 9,7 km/h (2 Bft) NW 306 0 min 0,000 mm 0,0 UV-I 0 W/m 10,9 C 11,3 C 27,4 km/h (4 Bft)
01.06.2013 05:00 13,2 C 86 % 1008,9 hPa 0,0 l/m 9,0 km/h (2 Bft) NW 314 0 min 0,000 mm 0,0 UV-I 0 W/m 10,9 C 11,6 C 22,5 km/h (4 Bft)
01.06.2013 05:05 13,2 C 86 % 1008,9 hPa 0,0 l/m 5,3 km/h (1 Bft) W-NW 292 0 min 0,025 mm 0,0 UV-I 0 W/m 10,9 C 13,2 C 11,3 km/h (2 Bft)
01.06.2013 05:10 13,1 C 87 % 1009,0 hPa 0,0 l/m 3,6 km/h (1 Bft) W-NW 296 0 min 0,000 mm 0,0 UV-I 0 W/m 11,0 C 13,1 C 11,3 km/h (2 Bft)
01.06.2013 05:15 13,1 C 87 % 1009,0 hPa 0,0 l/m 5,7 km/h (1 Bft) NW 304 0 min 0,000 mm 0,0 UV-I 0 W/m 11,0 C 13,1 C 12,9 km/h (3 Bft)
01.06.2013 05:20 13,1 C 87 % 1009,0 hPa 0,0 l/m 2,6 km/h (1 Bft) W-NW 297 0 min 0,000 mm 0,0 UV-I 0 W/m 11,0 C 13,1 C 9,7 km/h (2 Bft)
01.06.2013 05:25 13,0 C 87 % 1009,0 hPa 0,0 l/m 5,7 km/h (1 Bft) W-NW 294 0 min 0,000 mm 0,0 UV-I 0 W/m 10,9 C 13,0 C 9,7 km/h (2 Bft)
01.06.2013 05:30 12,9 C 87 % 1009,1 hPa 0,0 l/m 7,6 km/h (2 Bft) W-NW 300 0 min 0,000 mm 0,0 UV-I 0 W/m 10,8 C 12,1 C 16,1 km/h (3 Bft)
01.06.2013 05:35 12,9 C 87 % 1009,1 hPa 0,0 l/m 7,1 km/h (2 Bft) W-NW 288 0 min 0,000 mm 0,0 UV-I 0 W/m 10,8 C 12,5 C 14,5 km/h (3 Bft)
01.06.2013 05:40 12,8 C 87 % 1009,1 hPa 0,0 l/m 7,7 km/h (2 Bft) N-NW 335 0 min 0,000 mm 0,0 UV-I 5 W/m 10,7 C 12,0 C 19,3 km/h (3 Bft)
01.06.2013 05:45 12,8 C 87 % 1009,2 hPa 0,0 l/m 6,9 km/h (2 Bft) W-NW 286 0 min 0,000 mm 0,0 UV-I 0 W/m 10,7 C 12,5 C 17,7 km/h (3 Bft)
01.06.2013 05:50 12,8 C 87 % 1009,3 hPa 0,0 l/m 8,5 km/h (2 Bft) W-NW 282 0 min 0,000 mm 0,0 UV-I 0 W/m 10,7 C 11,5 C 19,3 km/h (3 Bft)
01.06.2013 05:55 12,7 C 87 % 1009,5 hPa 0,0 l/m 8,4 km/h (2 Bft) W-NW 297 0 min 0,000 mm 0,0 UV-I 5 W/m 10,6 C 11,5 C 22,5 km/h (4 Bft)
01.06.2013 06:00 12,7 C 87 % 1009,4 hPa 0,0 l/m 3,8 km/h (1 Bft) NW 313 0 min 0,000 mm 0,0 UV-I 7 W/m 10,6 C 12,7 C 9,7 km/h (2 Bft)
01.06.2013 06:05 12,6 C 87 % 1009,4 hPa 0,0 l/m 4,6 km/h (1 Bft) W-NW 286 0 min 0,000 mm 0,0 UV-I 9 W/m 10,5 C 12,6 C 17,7 km/h (3 Bft)
01.06.2013 06:10 12,6 C 86 % 1009,3 hPa 0,0 l/m 5,7 km/h (1 Bft) SW 220 0 min 0,000 mm 0,0 UV-I 12 W/m 10,3 C 12,6 C 14,5 km/h (3 Bft)
01.06.2013 06:15 12,5 C 87 % 1009,4 hPa 0,0 l/m 6,9 km/h (2 Bft) W-NW 288 0 min 0,000 mm 0,0 UV-I 14 W/m 10,4 C 12,2 C 12,9 km/h (3 Bft)
01.06.2013 06:20 12,5 C 87 % 1009,3 hPa 0,0 l/m 7,6 km/h (2 Bft) NW 318 0 min 0,000 mm 0,0 UV-I 19 W/m 10,4 C 11,7 C 16,1 km/h (3 Bft)
01.06.2013 06:25 12,4 C 87 % 1009,3 hPa 0,0 l/m 8,0 km/h (2 Bft) W 270 0 min 0,000 mm 0,0 UV-I 25 W/m 10,3 C 11,4 C 17,7 km/h (3 Bft)
01.06.2013 06:30 12,3 C 87 % 1009,3 hPa 0,0 l/m 5,3 km/h (1 Bft) W-NW 282 0 min 0,000 mm 0,0 UV-I 26 W/m 10,2 C 12,3 C 11,3 km/h (2 Bft)
01.06.2013 06:35 12,3 C 87 % 1009,3 hPa 0,0 l/m 8,4 km/h (2 Bft) W 265 0 min 0,000 mm 0,0 UV-I 26 W/m 10,2 C 11,0 C 17,7 km/h (3 Bft)
01.06.2013 06:40 12,3 C 87 % 1009,4 hPa 0,0 l/m 6,4 km/h (2 Bft) W 274 0 min 0,000 mm 0,0 UV-I 39 W/m 10,2 C 12,3 C 16,1 km/h (3 Bft)
01.06.2013 06:45 12,3 C 87 % 1009,4 hPa 0,0 l/m 7,6 km/h (2 Bft) N-NW 327 0 min 0,000 mm 0,0 UV-I 33 W/m 10,2 C 11,5 C 20,9 km/h (4 Bft)
01.06.2013 06:50 12,3 C 87 % 1009,4 hPa 0,0 l/m 7,5 km/h (2 Bft) W-NW 285 0 min 0,000 mm 0,0 UV-I 44 W/m 10,2 C 11,6 C 19,3 km/h (3 Bft)
01.06.2013 06:55 12,3 C 87 % 1009,4 hPa 0,0 l/m 6,2 km/h (2 Bft) W-NW 300 0 min 0,000 mm 0,0 UV-I 46 W/m 10,2 C 12,3 C 14,5 km/h (3 Bft)
01.06.2013 07:00 12,3 C 87 % 1009,5 hPa 0,0 l/m 6,1 km/h (2 Bft) W-SW 254 0 min 0,000 mm 0,0 UV-I 47 W/m 10,2 C 12,3 C 20,9 km/h (4 Bft)
01.06.2013 07:05 12,3 C 87 % 1009,5 hPa 0,0 l/m 7,7 km/h (2 Bft) W 276 0 min 0,025 mm 0,0 UV-I 42 W/m 10,2 C 11,5 C 19,3 km/h (3 Bft)
01.06.2013 07:10 12,3 C 87 % 1009,6 hPa 0,0 l/m 9,0 km/h (2 Bft) W 271 0 min 0,000 mm 0,0 UV-I 60 W/m 10,2 C 10,7 C 16,1 km/h (3 Bft)
01.06.2013 07:15 12,3 C 87 % 1009,6 hPa 0,0 l/m 6,5 km/h (2 Bft) W-NW 295 0 min 0,000 mm 0,0 UV-I 91 W/m 10,2 C 12,3 C 17,7 km/h (3 Bft)
01.06.2013 07:20 12,3 C 87 % 1009,7 hPa 0,0 l/m 6,3 km/h (2 Bft) W 273 0 min 0,000 mm 0,0 UV-I 83 W/m 10,2 C 12,3 C 14,5 km/h (3 Bft)
01.06.2013 07:25 12,3 C 87 % 1009,7 hPa 0,0 l/m 9,6 km/h (2 Bft) W-NW 296 0 min 0,000 mm 0,0 UV-I 60 W/m 10,2 C 10,3 C 17,7 km/h (3 Bft)
01.06.2013 07:30 12,4 C 86 % 1009,8 hPa 0,0 l/m 8,6 km/h (2 Bft) W-SW 238 0 min 0,000 mm 0,0 UV-I 47 W/m 10,1 C 11,0 C 19,3 km/h (3 Bft)
01.06.2013 07:35 12,4 C 87 % 1009,8 hPa 0,0 l/m 6,9 km/h (2 Bft) W-SW 247 0 min 0,000 mm 0,0 UV-I 54 W/m 10,3 C 12,1 C 14,5 km/h (3 Bft)
01.06.2013 07:40 12,4 C 87 % 1009,8 hPa 0,0 l/m 7,4 km/h (2 Bft) W 271 0 min 0,000 mm 0,0 UV-I 60 W/m 10,3 C 11,7 C 16,1 km/h (3 Bft)
01.06.2013 07:45 12,3 C 87 % 1009,9 hPa 0,0 l/m 10,1 km/h (2 Bft) W-SW 237 0 min 0,000 mm 0,0 UV-I 46 W/m 10,2 C 10,1 C 20,9 km/h (4 Bft)
01.06.2013 07:50 12,3 C 87 % 1010,1 hPa 0,0 l/m 8,9 km/h (2 Bft) W-NW 298 0 min 0,000 mm 0,0 UV-I 47 W/m 10,2 C 10,7 C 17,7 km/h (3 Bft)
01.06.2013 07:55 12,3 C 87 % 1010,3 hPa 0,0 l/m 6,5 km/h (2 Bft) W-NW 284 0 min 0,000 mm 0,0 UV-I 63 W/m 10,2 C 12,3 C 16,1 km/h (3 Bft)
01.06.2013 08:00 12,3 C 87 % 1010,3 hPa 0,0 l/m 7,4 km/h (2 Bft) W-NW 293 0 min 0,000 mm 0,0 UV-I 60 W/m 10,2 C 11,6 C 17,7 km/h (3 Bft)
01.06.2013 08:05 12,3 C 87 % 1010,3 hPa 0,0 l/m 5,3 km/h (1 Bft) W-SW 248 0 min 0,051 mm 0,0 UV-I 47 W/m 10,2 C 12,3 C 12,9 km/h (3 Bft)
01.06.2013 08:10 12,3 C 87 % 1010,5 hPa 0,0 l/m 5,5 km/h (1 Bft) W-NW 291 0 min 0,000 mm 0,0 UV-I 46 W/m 10,2 C 12,3 C 12,9 km/h (3 Bft)
01.06.2013 08:15 12,3 C 87 % 1010,4 hPa 0,0 l/m 5,4 km/h (1 Bft) NW 304 0 min 0,000 mm 0,0 UV-I 60 W/m 10,2 C 12,3 C 17,7 km/h (3 Bft)
01.06.2013 08:20 12,3 C 87 % 1010,5 hPa 0,0 l/m 5,8 km/h (2 Bft) W-NW 298 0 min 0,000 mm 0,5 UV-I 125 W/m 10,2 C 12,3 C 11,3 km/h (2 Bft)
01.06.2013 08:25 12,3 C 87 % 1010,5 hPa 0,0 l/m 11,0 km/h (2 Bft) NW 304 0 min 0,000 mm 0,5 UV-I 111 W/m 10,2 C 9,6 C 17,7 km/h (3 Bft)
01.06.2013 08:30 12,2 C 87 % 1010,5 hPa 0,0 l/m 10,6 km/h (2 Bft) W-NW 294 0 min 0,000 mm 0,6 UV-I 158 W/m 10,1 C 9,7 C 20,9 km/h (4 Bft)
01.06.2013 08:35 12,2 C 87 % 1010,6 hPa 0,0 l/m 9,9 km/h (2 Bft) W 275 0 min 0,000 mm 0,6 UV-I 137 W/m 10,1 C 10,1 C 19,3 km/h (3 Bft)
01.06.2013 08:40 12,2 C 87 % 1010,6 hPa 0,0 l/m 12,2 km/h (2 Bft) W-NW 294 0 min 0,000 mm 0,7 UV-I 186 W/m 10,1 C 9,0 C 25,7 km/h (4 Bft)
01.06.2013 08:45 12,3 C 87 % 1010,6 hPa 0,0 l/m 8,6 km/h (2 Bft) W-NW 294 0 min 0,000 mm 0,8 UV-I 188 W/m 10,2 C 10,9 C 19,3 km/h (3 Bft)
01.06.2013 08:50 12,3 C 86 % 1010,6 hPa 0,0 l/m 10,1 km/h (2 Bft) W-NW 290 0 min 0,000 mm 0,9 UV-I 211 W/m 10,0 C 10,1 C 19,3 km/h (3 Bft)
01.06.2013 08:55 12,5 C 86 % 1010,6 hPa 0,0 l/m 8,8 km/h (2 Bft) NW 322 0 min 0,000 mm 1,1 UV-I 265 W/m 10,2 C 11,0 C 19,3 km/h (3 Bft)
01.06.2013 09:00 12,6 C 85 % 1010,6 hPa 0,0 l/m 7,8 km/h (2 Bft) NW 309 0 min 0,000 mm 0,9 UV-I 188 W/m 10,1 C 11,7 C 19,3 km/h (3 Bft)
01.06.2013 09:05 12,6 C 85 % 1010,6 hPa 0,0 l/m 10,1 km/h (2 Bft) W 271 0 min 0,076 mm 1,3 UV-I 290 W/m 10,1 C 10,4 C 20,9 km/h (4 Bft)
01.06.2013 09:10 12,7 C 85 % 1010,6 hPa 0,0 l/m 10,1 km/h (2 Bft) NW 306 0 min 0,000 mm 0,9 UV-I 167 W/m 10,2 C 10,5 C 17,7 km/h (3 Bft)
01.06.2013 09:15 12,7 C 85 % 1010,8 hPa 0,0 l/m 4,9 km/h (1 Bft) W-NW 301 0 min 0,000 mm 0,8 UV-I 125 W/m 10,2 C 12,7 C 16,1 km/h (3 Bft)
01.06.2013 09:20 12,8 C 84 % 1010,8 hPa 0,0 l/m 7,9 km/h (2 Bft) W-NW 298 0 min 0,000 mm 0,9 UV-I 148 W/m 10,2 C 11,9 C 22,5 km/h (4 Bft)
01.06.2013 09:25 12,7 C 85 % 1010,7 hPa 0,0 l/m 9,4 km/h (2 Bft) W-NW 285 0 min 0,000 mm 1,0 UV-I 132 W/m 10,2 C 10,9 C 19,3 km/h (3 Bft)
01.06.2013 09:30 12,6 C 85 % 1010,8 hPa 0,0 l/m 7,2 km/h (2 Bft) N-NW 343 0 min 0,000 mm 1,0 UV-I 130 W/m 10,1 C 12,1 C 16,1 km/h (3 Bft)
01.06.2013 09:35 12,7 C 85 % 1010,9 hPa 0,0 l/m 3,0 km/h (1 Bft) NW 305 0 min 0,000 mm 1,2 UV-I 176 W/m 10,2 C 12,7 C 8,0 km/h (2 Bft)
01.06.2013 09:40 12,9 C 85 % 1011,0 hPa 0,0 l/m 1,3 km/h (1 Bft) W-NW 290 0 min 0,000 mm 1,1 UV-I 153 W/m 10,4 C 12,9 C 8,0 km/h (2 Bft)
01.06.2013 09:45 13,1 C 85 % 1011,1 hPa 0,0 l/m 4,6 km/h (1 Bft) W-NW 287 0 min 0,000 mm 1,0 UV-I 135 W/m 10,6 C 13,1 C 12,9 km/h (3 Bft)
01.06.2013 09:50 13,1 C 84 % 1011,2 hPa 0,0 l/m 6,5 km/h (2 Bft) W-NW 301 0 min 0,000 mm 0,9 UV-I 134 W/m 10,5 C 13,1 C 12,9 km/h (3 Bft)
01.06.2013 09:55 13,0 C 84 % 1011,3 hPa 0,0 l/m 5,4 km/h (1 Bft) W 273 0 min 0,000 mm 0,9 UV-I 156 W/m 10,4 C 13,0 C 16,1 km/h (3 Bft)
01.06.2013 10:00 12,9 C 84 % 1011,3 hPa 0,0 l/m 7,8 km/h (2 Bft) W-NW 293 0 min 0,000 mm 1,1 UV-I 211 W/m 10,3 C 12,0 C 16,1 km/h (3 Bft)
01.06.2013 10:05 13,0 C 84 % 1011,4 hPa 0,0 l/m 7,7 km/h (2 Bft) W 271 0 min 0,102 mm 1,2 UV-I 232 W/m 10,4 C 12,2 C 19,3 km/h (3 Bft)
01.06.2013 10:10 13,1 C 84 % 1011,4 hPa 0,0 l/m 4,7 km/h (1 Bft) W-NW 293 0 min 0,000 mm 0,9 UV-I 162 W/m 10,5 C 13,1 C 11,3 km/h (2 Bft)
01.06.2013 10:15 13,1 C 83 % 1011,4 hPa 0,0 l/m 7,9 km/h (2 Bft) NW 305 0 min 0,000 mm 1,1 UV-I 185 W/m 10,3 C 12,2 C 17,7 km/h (3 Bft)
01.06.2013 10:20 13,0 C 84 % 1011,5 hPa 0,0 l/m 7,2 km/h (2 Bft) NW 309 0 min 0,000 mm 1,1 UV-I 178 W/m 10,4 C 12,5 C 16,1 km/h (3 Bft)
01.06.2013 10:25 13,0 C 83 % 1011,5 hPa 0,0 l/m 9,7 km/h (2 Bft) W 279 0 min 0,000 mm 1,3 UV-I 225 W/m 10,2 C 11,1 C 17,7 km/h (3 Bft)
01.06.2013 10:30 13,1 C 84 % 1011,5 hPa 0,0 l/m 7,2 km/h (2 Bft) W 272 0 min 0,000 mm 1,3 UV-I 223 W/m 10,5 C 12,6 C 16,1 km/h (3 Bft)
01.06.2013 10:35 13,2 C 83 % 1011,5 hPa 0,0 l/m 7,6 km/h (2 Bft) NW 323 0 min 0,000 mm 1,4 UV-I 251 W/m 10,4 C 12,5 C 17,7 km/h (3 Bft)
01.06.2013 10:40 13,3 C 82 % 1011,5 hPa 0,0 l/m 6,7 km/h (2 Bft) W 275 0 min 0,000 mm 1,3 UV-I 207 W/m 10,3 C 13,1 C 16,1 km/h (3 Bft)
01.06.2013 10:45 13,3 C 82 % 1011,6 hPa 0,0 l/m 5,2 km/h (1 Bft) NW 317 0 min 0,000 mm 1,3 UV-I 211 W/m 10,3 C 13,3 C 19,3 km/h (3 Bft)
01.06.2013 10:50 13,4 C 82 % 1011,6 hPa 0,0 l/m 6,6 km/h (2 Bft) W-NW 303 0 min 0,000 mm 1,4 UV-I 221 W/m 10,4 C 13,3 C 12,9 km/h (3 Bft)
01.06.2013 10:55 13,4 C 81 % 1011,7 hPa 0,0 l/m 10,5 km/h (2 Bft) W-NW 298 0 min 0,000 mm 1,2 UV-I 209 W/m 10,2 C 11,1 C 24,1 km/h (4 Bft)
01.06.2013 11:00 13,4 C 81 % 1011,7 hPa 0,0 l/m 6,4 km/h (2 Bft) NW 312 0 min 0,000 mm 1,3 UV-I 209 W/m 10,2 C 13,4 C 19,3 km/h (3 Bft)
01.06.2013 11:05 13,5 C 82 % 1011,8 hPa 0,0 l/m 4,6 km/h (1 Bft) W 277 0 min 0,127 mm 1,4 UV-I 223 W/m 10,5 C 13,5 C 16,1 km/h (3 Bft)
01.06.2013 11:10 13,6 C 80 % 1011,8 hPa 0,0 l/m 7,8 km/h (2 Bft) W-NW 302 0 min 0,000 mm 1,6 UV-I 255 W/m 10,2 C 12,7 C 19,3 km/h (3 Bft)
01.06.2013 11:15 13,8 C 80 % 1011,7 hPa 0,0 l/m 3,0 km/h (1 Bft) NW 307 0 min 0,000 mm 2,2 UV-I 338 W/m 10,4 C 13,8 C 8,0 km/h (2 Bft)
01.06.2013 11:20 14,3 C 77 % 1011,7 hPa 0,0 l/m 5,4 km/h (1 Bft) NW 309 0 min 0,000 mm 4,9 UV-I 373 W/m 10,3 C 14,3 C 12,9 km/h (3 Bft)
01.06.2013 11:25 15,1 C 74 % 1011,5 hPa 0,0 l/m 5,4 km/h (1 Bft) N 360 5 min 0,000 mm 3,6 UV-I 1049 W/m 10,5 C 15,1 C 16,1 km/h (3 Bft)
01.06.2013 11:30 15,5 C 73 % 1011,6 hPa 0,0 l/m 3,0 km/h (1 Bft) W 276 0 min 0,000 mm 4,0 UV-I 387 W/m 10,7 C 15,5 C 9,7 km/h (2 Bft)
01.06.2013 11:35 15,4 C 71 % 1011,5 hPa 0,0 l/m 8,8 km/h (2 Bft) W-NW 287 0 min 0,000 mm 2,7 UV-I 357 W/m 10,2 C 14,1 C 22,5 km/h (4 Bft)
01.06.2013 11:40 14,9 C 72 % 1011,6 hPa 0,0 l/m 11,9 km/h (2 Bft) W 262 0 min 0,000 mm 3,3 UV-I 439 W/m 9,9 C 12,2 C 25,7 km/h (4 Bft)
01.06.2013 11:45 15,5 C 72 % 1011,6 hPa 0,0 l/m 6,4 km/h (2 Bft) NW 319 5 min 0,000 mm 3,3 UV-I 455 W/m 10,5 C 15,5 C 17,7 km/h (3 Bft)
01.06.2013 11:50 16,2 C 71 % 1011,5 hPa 0,0 l/m 7,4 km/h (2 Bft) NW 323 0 min 0,000 mm 4,1 UV-I 315 W/m 10,9 C 15,7 C 14,5 km/h (3 Bft)
01.06.2013 11:55 16,6 C 68 % 1011,5 hPa 0,0 l/m 7,6 km/h (2 Bft) NW 312 5 min 0,000 mm 3,4 UV-I 503 W/m 10,7 C 16,0 C 20,9 km/h (4 Bft)
01.06.2013 12:00 16,6 C 67 % 1011,6 hPa 0,0 l/m 6,3 km/h (2 Bft) W 268 0 min 0,000 mm 4,9 UV-I 443 W/m 10,4 C 16,6 C 16,1 km/h (3 Bft)
01.06.2013 12:05 16,5 C 67 % 1011,7 hPa 0,0 l/m 6,2 km/h (2 Bft) W-SW 246 0 min 0,279 mm 3,1 UV-I 353 W/m 10,4 C 16,5 C 16,1 km/h (3 Bft)
01.06.2013 12:10 16,2 C 68 % 1011,7 hPa 0,0 l/m 10,1 km/h (2 Bft) W 259 0 min 0,000 mm 3,0 UV-I 353 W/m 10,3 C 14,4 C 22,5 km/h (4 Bft)
01.06.2013 12:15 16,4 C 67 % 1011,8 hPa 0,0 l/m 5,5 km/h (1 Bft) NW 311 0 min 0,000 mm 6,1 UV-I 313 W/m 10,3 C 16,4 C 17,7 km/h (3 Bft)
01.06.2013 12:20 17,1 C 65 % 1011,8 hPa 0,0 l/m 7,1 km/h (2 Bft) NW 316 5 min 0,000 mm 5,4 UV-I 1195 W/m 10,5 C 16,7 C 22,5 km/h (4 Bft)
01.06.2013 12:25 17,3 C 66 % 1012,0 hPa 0,0 l/m 7,2 km/h (2 Bft) W 271 0 min 0,000 mm 3,4 UV-I 455 W/m 10,9 C 16,9 C 16,1 km/h (3 Bft)
01.06.2013 12:30 17,0 C 66 % 1011,9 hPa 0,0 l/m 8,5 km/h (2 Bft) NW 305 0 min 0,000 mm 3,1 UV-I 399 W/m 10,6 C 16,0 C 19,3 km/h (3 Bft)
01.06.2013 12:35 16,6 C 67 % 1012,0 hPa 0,0 l/m 6,8 km/h (2 Bft) NW 312 0 min 0,000 mm 3,5 UV-I 438 W/m 10,4 C 16,4 C 19,3 km/h (3 Bft)
01.06.2013 12:40 16,6 C 67 % 1012,0 hPa 0,0 l/m 8,8 km/h (2 Bft) NW 313 0 min 0,000 mm 3,1 UV-I 397 W/m 10,4 C 15,4 C 20,9 km/h (4 Bft)
01.06.2013 12:45 16,2 C 68 % 1012,2 hPa 0,0 l/m 14,2 km/h (3 Bft) W 281 0 min 0,000 mm 3,0 UV-I 362 W/m 10,3 C 12,9 C 30,6 km/h (5 Bft)
01.06.2013 12:50 15,6 C 70 % 1012,2 hPa 0,0 l/m 14,9 km/h (3 Bft) W-NW 296 0 min 0,000 mm 6,5 UV-I 425 W/m 10,1 C 12,0 C 25,7 km/h (4 Bft)
01.06.2013 12:55 16,1 C 72 % 1012,3 hPa 0,0 l/m 9,9 km/h (2 Bft) W-NW 300 5 min 0,000 mm 6,5 UV-I 612 W/m 11,0 C 14,4 C 22,5 km/h (4 Bft)
01.06.2013 13:00 17,3 C 69 % 1012,2 hPa 0,0 l/m 5,6 km/h (1 Bft) N 5 5 min 0,000 mm 6,8 UV-I 1106 W/m 11,6 C 17,3 C 11,3 km/h (2 Bft)
01.06.2013 13:05 17,3 C 66 % 1012,3 hPa 0,0 l/m 9,2 km/h (2 Bft) W-NW 284 0 min 0,356 mm 6,9 UV-I 287 W/m 10,9 C 16,0 C 20,9 km/h (4 Bft)
01.06.2013 13:10 17,1 C 70 % 1012,4 hPa 0,0 l/m 10,6 km/h (2 Bft) W 280 5 min 0,000 mm 4,5 UV-I 1201 W/m 11,6 C 15,2 C 19,3 km/h (3 Bft)
01.06.2013 13:15 17,2 C 68 % 1012,4 hPa 0,0 l/m 12,0 km/h (2 Bft) W-NW 296 5 min 0,000 mm 5,9 UV-I 1153 W/m 11,2 C 14,8 C 24,1 km/h (4 Bft)
01.06.2013 13:20 17,8 C 68 % 1012,4 hPa 0,0 l/m 8,6 km/h (2 Bft) NW 307 5 min 0,000 mm 6,6 UV-I 1007 W/m 11,8 C 16,8 C 24,1 km/h (4 Bft)
01.06.2013 13:25 18,1 C 64 % 1012,3 hPa 0,0 l/m 9,0 km/h (2 Bft) NW 315 5 min 0,000 mm 6,9 UV-I 1090 W/m 11,2 C 16,9 C 20,9 km/h (4 Bft)
01.06.2013 13:30 17,3 C 65 % 1012,4 hPa 0,0 l/m 10,8 km/h (2 Bft) W-SW 257 5 min 0,000 mm 4,6 UV-I 622 W/m 10,7 C 15,4 C 24,1 km/h (4 Bft)
01.06.2013 13:35 16,3 C 69 % 1012,5 hPa 0,0 l/m 12,0 km/h (2 Bft) W 260 0 min 0,000 mm 4,9 UV-I 353 W/m 10,6 C 13,8 C 22,5 km/h (4 Bft)
01.06.2013 13:40 16,1 C 71 % 1012,5 hPa 0,0 l/m 12,2 km/h (2 Bft) N-NW 341 5 min 0,000 mm 4,1 UV-I 1179 W/m 10,8 C 13,5 C 22,5 km/h (4 Bft)
01.06.2013 13:45 16,3 C 69 % 1012,5 hPa 0,0 l/m 12,0 km/h (2 Bft) W 263 0 min 0,000 mm 3,5 UV-I 396 W/m 10,6 C 13,8 C 25,7 km/h (4 Bft)
01.06.2013 13:50 16,3 C 70 % 1012,7 hPa 0,0 l/m 10,0 km/h (2 Bft) W-NW 289 0 min 0,000 mm 3,7 UV-I 417 W/m 10,8 C 14,6 C 22,5 km/h (4 Bft)
01.06.2013 13:55 16,2 C 72 % 1012,8 hPa 0,0 l/m 11,6 km/h (2 Bft) NW 319 5 min 0,000 mm 6,3 UV-I 548 W/m 11,1 C 13,8 C 29,0 km/h (5 Bft)
01.06.2013 14:00 16,9 C 70 % 1012,8 hPa 0,0 l/m 11,4 km/h (2 Bft) N-NW 348 5 min 0,000 mm 4,2 UV-I 1143 W/m 11,4 C 14,7 C 22,5 km/h (4 Bft)
01.06.2013 14:05 17,3 C 68 % 1012,7 hPa 0,0 l/m 8,4 km/h (2 Bft) W-NW 299 0 min 0,457 mm 5,1 UV-I 471 W/m 11,3 C 16,3 C 14,5 km/h (3 Bft)
01.06.2013 14:10 17,2 C 69 % 1012,7 hPa 0,0 l/m 5,4 km/h (1 Bft) W-NW 300 0 min 0,000 mm 6,5 UV-I 462 W/m 11,5 C 17,2 C 17,7 km/h (3 Bft)
01.06.2013 14:15 16,7 C 67 % 1012,8 hPa 0,0 l/m 12,3 km/h (3 Bft) W 277 5 min 0,000 mm 6,1 UV-I 1116 W/m 10,5 C 14,1 C 27,4 km/h (4 Bft)
01.06.2013 14:20 16,2 C 71 % 1012,8 hPa 0,0 l/m 14,3 km/h (3 Bft) NW 304 5 min 0,000 mm 4,4 UV-I 612 W/m 10,9 C 12,9 C 25,7 km/h (4 Bft)
01.06.2013 14:25 16,6 C 72 % 1012,9 hPa 0,0 l/m 8,5 km/h (2 Bft) S-SW 211 5 min 0,000 mm 6,3 UV-I 1074 W/m 11,5 C 15,5 C 22,5 km/h (4 Bft)
01.06.2013 14:30 17,2 C 68 % 1012,8 hPa 0,0 l/m 8,8 km/h (2 Bft) NW 319 5 min 0,000 mm 4,0 UV-I 1074 W/m 11,2 C 16,0 C 17,7 km/h (3 Bft)
01.06.2013 14:35 17,0 C 68 % 1012,7 hPa 0,0 l/m 9,8 km/h (2 Bft) W-NW 286 5 min 0,000 mm 3,8 UV-I 635 W/m 11,0 C 15,4 C 30,6 km/h (5 Bft)
01.06.2013 14:40 15,6 C 72 % 1012,7 hPa 0,0 l/m 17,7 km/h (3 Bft) NW 309 5 min 0,000 mm 3,8 UV-I 503 W/m 10,6 C 11,1 C 30,6 km/h (5 Bft)
01.06.2013 14:45 15,4 C 74 % 1012,7 hPa 0,0 l/m 14,3 km/h (3 Bft) W-NW 287 5 min 0,000 mm 5,9 UV-I 1067 W/m 10,8 C 11,9 C 29,0 km/h (5 Bft)
01.06.2013 14:50 15,4 C 74 % 1012,9 hPa 0,0 l/m 16,2 km/h (3 Bft) NW 310 0 min 0,000 mm 2,9 UV-I 429 W/m 10,8 C 11,3 C 30,6 km/h (5 Bft)
01.06.2013 14:55 15,3 C 74 % 1013,0 hPa 0,0 l/m 12,7 km/h (3 Bft) W-NW 284 0 min 0,000 mm 2,8 UV-I 348 W/m 10,7 C 12,4 C 24,1 km/h (4 Bft)
01.06.2013 15:00 15,2 C 75 % 1013,1 hPa 0,0 l/m 10,9 km/h (2 Bft) NW 304 0 min 0,000 mm 2,3 UV-I 285 W/m 10,8 C 12,9 C 25,7 km/h (4 Bft)
01.06.2013 15:05 15,2 C 75 % 1013,0 hPa 0,0 l/m 9,9 km/h (2 Bft) W 276 0 min 0,381 mm 2,2 UV-I 294 W/m 10,8 C 13,4 C 24,1 km/h (4 Bft)
01.06.2013 15:10 14,7 C 76 % 1012,9 hPa 0,0 l/m 11,0 km/h (2 Bft) W-SW 253 0 min 0,000 mm 2,4 UV-I 302 W/m 10,5 C 12,3 C 20,9 km/h (4 Bft)
01.06.2013 15:15 14,4 C 77 % 1013,1 hPa 0,0 l/m 9,5 km/h (2 Bft) W-NW 298 0 min 0,000 mm 1,9 UV-I 264 W/m 10,4 C 12,7 C 19,3 km/h (3 Bft)
01.06.2013 15:20 14,3 C 78 % 1013,1 hPa 0,0 l/m 8,2 km/h (2 Bft) W-NW 300 0 min 0,000 mm 1,3 UV-I 185 W/m 10,5 C 13,3 C 19,3 km/h (3 Bft)
01.06.2013 15:25 14,3 C 79 % 1013,1 hPa 0,0 l/m 5,8 km/h (2 Bft) W-NW 297 0 min 0,000 mm 1,9 UV-I 230 W/m 10,7 C 14,3 C 14,5 km/h (3 Bft)
01.06.2013 15:30 14,2 C 77 % 1013,2 hPa 0,0 l/m 8,1 km/h (2 Bft) W-NW 283 0 min 0,000 mm 1,6 UV-I 229 W/m 10,2 C 13,2 C 22,5 km/h (4 Bft)
01.06.2013 15:35 13,8 C 79 % 1013,2 hPa 0,0 l/m 8,8 km/h (2 Bft) NW 312 0 min 0,000 mm 1,3 UV-I 181 W/m 10,2 C 12,4 C 20,9 km/h (4 Bft)
01.06.2013 15:40 13,4 C 80 % 1013,3 hPa 0,0 l/m 8,4 km/h (2 Bft) N-NW 340 0 min 0,000 mm 1,5 UV-I 213 W/m 10,0 C 12,2 C 17,7 km/h (3 Bft)
01.06.2013 15:45 13,2 C 81 % 1013,3 hPa 0,0 l/m 10,9 km/h (2 Bft) N-NW 346 0 min 0,000 mm 1,5 UV-I 220 W/m 10,0 C 10,7 C 27,4 km/h (4 Bft)
01.06.2013 15:50 13,3 C 82 % 1013,3 hPa 0,0 l/m 6,3 km/h (2 Bft) W 271 0 min 0,000 mm 1,7 UV-I 253 W/m 10,3 C 13,3 C 17,7 km/h (3 Bft)
01.06.2013 15:55 13,4 C 81 % 1013,3 hPa 0,0 l/m 11,6 km/h (2 Bft) W-NW 298 0 min 0,000 mm 1,7 UV-I 255 W/m 10,2 C 10,6 C 24,1 km/h (4 Bft)
01.06.2013 16:00 13,2 C 81 % 1013,4 hPa 0,0 l/m 14,9 km/h (3 Bft) N-NW 333 0 min 0,000 mm 1,4 UV-I 209 W/m 10,0 C 9,0 C 25,7 km/h (4 Bft)
01.06.2013 16:05 13,1 C 82 % 1013,4 hPa 0,0 l/m 9,5 km/h (2 Bft) NW 321 0 min 0,127 mm 1,3 UV-I 204 W/m 10,1 C 11,3 C 20,9 km/h (4 Bft)
01.06.2013 16:10 13,1 C 82 % 1013,4 hPa 0,0 l/m 10,7 km/h (2 Bft) NW 312 0 min 0,000 mm 1,3 UV-I 202 W/m 10,1 C 10,7 C 29,0 km/h (5 Bft)
01.06.2013 16:15 13,2 C 81 % 1013,4 hPa 0,0 l/m 12,3 km/h (3 Bft) W 271 0 min 0,000 mm 1,8 UV-I 316 W/m 10,0 C 10,1 C 27,4 km/h (4 Bft)
01.06.2013 16:20 13,1 C 80 % 1013,4 hPa 0,0 l/m 14,5 km/h (3 Bft) W-SW 258 0 min 0,000 mm 1,3 UV-I 183 W/m 9,7 C 9,1 C 35,4 km/h (5 Bft)
01.06.2013 16:25 13,1 C 81 % 1013,4 hPa 0,0 l/m 11,4 km/h (2 Bft) W-NW 299 0 min 0,000 mm 1,0 UV-I 153 W/m 9,9 C 10,4 C 30,6 km/h (5 Bft)
01.06.2013 16:30 13,1 C 81 % 1013,4 hPa 0,0 l/m 13,0 km/h (3 Bft) N-NW 347 0 min 0,000 mm 1,2 UV-I 183 W/m 9,9 C 9,7 C 24,1 km/h (4 Bft)
01.06.2013 16:35 13,2 C 81 % 1013,5 hPa 0,0 l/m 8,2 km/h (2 Bft) W 275 0 min 0,000 mm 1,3 UV-I 221 W/m 10,0 C 12,1 C 17,7 km/h (3 Bft)
01.06.2013 16:40 13,3 C 81 % 1013,5 hPa 0,0 l/m 9,7 km/h (2 Bft) NW 307 0 min 0,000 mm 1,4 UV-I 265 W/m 10,1 C 11,4 C 24,1 km/h (4 Bft)
01.06.2013 16:45 13,4 C 80 % 1013,5 hPa 0,0 l/m 12,4 km/h (3 Bft) W-NW 302 0 min 0,000 mm 1,4 UV-I 244 W/m 10,0 C 10,3 C 38,6 km/h (5 Bft)
01.06.2013 16:50 13,4 C 80 % 1013,5 hPa 0,0 l/m 8,6 km/h (2 Bft) NW 311 5 min 0,000 mm 1,9 UV-I 388 W/m 10,0 C 12,1 C 25,7 km/h (4 Bft)
01.06.2013 16:55 13,8 C 79 % 1013,6 hPa 0,0 l/m 10,2 km/h (2 Bft) W-NW 301 0 min 0,000 mm 1,4 UV-I 294 W/m 10,2 C 11,7 C 25,7 km/h (4 Bft)
01.06.2013 17:00 13,7 C 79 % 1013,6 hPa 0,0 l/m 11,2 km/h (2 Bft) W-NW 283 0 min 0,000 mm 1,2 UV-I 285 W/m 10,1 C 11,1 C 22,5 km/h (4 Bft)
01.06.2013 17:05 13,5 C 80 % 1013,6 hPa 0,0 l/m 11,3 km/h (2 Bft) W 281 0 min 0,153 mm 1,0 UV-I 169 W/m 10,1 C 10,9 C 30,6 km/h (5 Bft)
01.06.2013 17:10 13,4 C 80 % 1013,6 hPa 0,0 l/m 12,7 km/h (3 Bft) W-NW 296 0 min 0,000 mm 1,0 UV-I 171 W/m 10,0 C 10,1 C 29,0 km/h (5 Bft)
01.06.2013 17:15 13,3 C 81 % 1013,7 hPa 0,0 l/m 10,1 km/h (2 Bft) W-NW 284 0 min 0,000 mm 0,8 UV-I 130 W/m 10,1 C 11,2 C 22,5 km/h (4 Bft)
01.06.2013 17:20 13,1 C 80 % 1013,7 hPa 0,0 l/m 15,0 km/h (3 Bft) NW 312 0 min 0,000 mm 0,7 UV-I 111 W/m 9,7 C 8,9 C 27,4 km/h (4 Bft)
01.06.2013 17:25 13,0 C 81 % 1013,9 hPa 0,0 l/m 10,5 km/h (2 Bft) W-NW 291 0 min 0,000 mm 0,6 UV-I 102 W/m 9,8 C 10,7 C 20,9 km/h (4 Bft)
01.06.2013 17:30 12,9 C 81 % 1014,0 hPa 0,0 l/m 10,6 km/h (2 Bft) W-NW 299 0 min 0,000 mm 0,5 UV-I 91 W/m 9,7 C 10,5 C 24,1 km/h (4 Bft)
01.06.2013 17:35 12,8 C 82 % 1014,1 hPa 0,0 l/m 8,0 km/h (2 Bft) NW 317 0 min 0,000 mm 0,5 UV-I 76 W/m 9,8 C 11,8 C 25,7 km/h (4 Bft)
01.06.2013 17:40 12,7 C 82 % 1014,1 hPa 0,0 l/m 8,6 km/h (2 Bft) NW 314 0 min 0,000 mm 0,0 UV-I 70 W/m 9,7 C 11,3 C 24,1 km/h (4 Bft)
01.06.2013 17:45 12,7 C 82 % 1014,1 hPa 0,0 l/m 4,8 km/h (1 Bft) NW 323 0 min 0,000 mm 0,0 UV-I 70 W/m 9,7 C 12,7 C 12,9 km/h (3 Bft)
01.06.2013 17:50 12,8 C 82 % 1014,0 hPa 0,0 l/m 3,7 km/h (1 Bft) NW 315 0 min 0,000 mm 0,5 UV-I 84 W/m 9,8 C 12,8 C 16,1 km/h (3 Bft)
01.06.2013 17:55 12,7 C 82 % 1014,3 hPa 0,0 l/m 8,7 km/h (2 Bft) W-SW 253 0 min 0,000 mm 0,0 UV-I 74 W/m 9,7 C 11,3 C 25,7 km/h (4 Bft)
01.06.2013 18:00 12,6 C 82 % 1014,2 hPa 0,0 l/m 8,2 km/h (2 Bft) O-NO 72 0 min 0,000 mm 0,0 UV-I 65 W/m 9,6 C 11,5 C 19,3 km/h (3 Bft)
01.06.2013 18:05 12,6 C 82 % 1014,1 hPa 0,0 l/m 7,0 km/h (2 Bft) W 272 0 min 0,076 mm 0,0 UV-I 63 W/m 9,6 C 12,2 C 20,9 km/h (4 Bft)
01.06.2013 18:10 12,5 C 83 % 1014,2 hPa 0,0 l/m 13,1 km/h (3 Bft) W-NW 294 0 min 0,000 mm 0,0 UV-I 76 W/m 9,7 C 8,9 C 30,6 km/h (5 Bft)
01.06.2013 18:15 12,4 C 83 % 1014,2 hPa 0,0 l/m 6,5 km/h (2 Bft) N-NW 345 0 min 0,000 mm 0,0 UV-I 70 W/m 9,6 C 12,4 C 16,1 km/h (3 Bft)
01.06.2013 18:20 12,4 C 83 % 1014,3 hPa 0,0 l/m 4,7 km/h (1 Bft) NW 318 0 min 0,000 mm 0,0 UV-I 86 W/m 9,6 C 12,4 C 17,7 km/h (3 Bft)
01.06.2013 18:25 12,5 C 83 % 1014,3 hPa 0,0 l/m 5,2 km/h (1 Bft) W-SW 238 0 min 0,000 mm 0,0 UV-I 67 W/m 9,7 C 12,5 C 14,5 km/h (3 Bft)
01.06.2013 18:30 12,5 C 84 % 1014,4 hPa 0,0 l/m 5,0 km/h (1 Bft) W-NW 296 0 min 0,000 mm 0,0 UV-I 56 W/m 9,9 C 12,5 C 12,9 km/h (3 Bft)
01.06.2013 18:35 12,5 C 83 % 1014,2 hPa 0,0 l/m 2,5 km/h (1 Bft) NO 54 0 min 0,000 mm 0,0 UV-I 60 W/m 9,7 C 12,5 C 11,3 km/h (2 Bft)
01.06.2013 18:40 12,5 C 83 % 1014,5 hPa 0,0 l/m 5,2 km/h (1 Bft) W-NW 287 0 min 0,000 mm 0,0 UV-I 81 W/m 9,7 C 12,5 C 11,3 km/h (2 Bft)
01.06.2013 18:45 12,5 C 83 % 1014,5 hPa 0,0 l/m 4,1 km/h (1 Bft) SW 232 0 min 0,000 mm 0,0 UV-I 58 W/m 9,7 C 12,5 C 16,1 km/h (3 Bft)
01.06.2013 18:50 12,4 C 82 % 1014,5 hPa 0,0 l/m 8,2 km/h (2 Bft) N-NO 20 0 min 0,000 mm 0,0 UV-I 51 W/m 9,4 C 11,3 C 19,3 km/h (3 Bft)
01.06.2013 18:55 12,4 C 82 % 1014,5 hPa 0,0 l/m 11,4 km/h (2 Bft) W 280 0 min 0,000 mm 0,0 UV-I 56 W/m 9,4 C 9,6 C 37,0 km/h (5 Bft)
01.06.2013 19:00 12,4 C 83 % 1014,6 hPa 0,0 l/m 6,1 km/h (2 Bft) W-SW 250 0 min 0,000 mm 0,0 UV-I 58 W/m 9,6 C 12,4 C 16,1 km/h (3 Bft)
01.06.2013 19:05 12,4 C 83 % 1014,8 hPa 0,0 l/m 7,9 km/h (2 Bft) W 273 0 min 0,051 mm 0,0 UV-I 46 W/m 9,6 C 11,4 C 24,1 km/h (4 Bft)
01.06.2013 19:10 12,3 C 83 % 1014,7 hPa 0,0 l/m 11,7 km/h (2 Bft) W-NW 290 0 min 0,000 mm 0,0 UV-I 35 W/m 9,5 C 9,3 C 32,2 km/h (5 Bft)
01.06.2013 19:15 12,3 C 83 % 1014,8 hPa 0,0 l/m 2,5 km/h (1 Bft) W 274 0 min 0,000 mm 0,0 UV-I 32 W/m 9,5 C 12,3 C 8,0 km/h (2 Bft)
01.06.2013 19:20 12,3 C 83 % 1014,8 hPa 0,0 l/m 5,3 km/h (1 Bft) W 271 0 min 0,000 mm 0,0 UV-I 25 W/m 9,5 C 12,3 C 11,3 km/h (2 Bft)
01.06.2013 19:25 12,2 C 84 % 1014,9 hPa 0,0 l/m 4,4 km/h (1 Bft) NW 319 0 min 0,000 mm 0,0 UV-I 26 W/m 9,6 C 12,2 C 11,3 km/h (2 Bft)
01.06.2013 19:30 12,2 C 84 % 1014,9 hPa 0,0 l/m 5,6 km/h (1 Bft) NW 315 0 min 0,000 mm 0,0 UV-I 26 W/m 9,6 C 12,2 C 14,5 km/h (3 Bft)
01.06.2013 19:35 12,1 C 84 % 1015,0 hPa 0,0 l/m 6,0 km/h (2 Bft) N-NW 330 0 min 0,000 mm 0,0 UV-I 25 W/m 9,5 C 12,1 C 17,7 km/h (3 Bft)
01.06.2013 19:40 12,1 C 83 % 1015,0 hPa 0,0 l/m 7,2 km/h (2 Bft) S-SW 211 0 min 0,000 mm 0,0 UV-I 28 W/m 9,3 C 11,6 C 22,5 km/h (4 Bft)
01.06.2013 19:45 12,1 C 83 % 1015,1 hPa 0,0 l/m 7,4 km/h (2 Bft) NW 312 0 min 0,000 mm 0,0 UV-I 28 W/m 9,3 C 11,4 C 16,1 km/h (3 Bft)
01.06.2013 19:50 12,0 C 83 % 1015,1 hPa 0,0 l/m 6,1 km/h (2 Bft) NW 318 0 min 0,000 mm 0,0 UV-I 35 W/m 9,2 C 12,0 C 14,5 km/h (3 Bft)
01.06.2013 19:55 12,0 C 83 % 1015,1 hPa 0,0 l/m 4,6 km/h (1 Bft) N-NW 327 0 min 0,000 mm 0,0 UV-I 30 W/m 9,2 C 12,0 C 20,9 km/h (4 Bft)
01.06.2013 20:00 12,0 C 83 % 1015,1 hPa 0,0 l/m 5,0 km/h (1 Bft) NW 323 0 min 0,000 mm 0,0 UV-I 25 W/m 9,2 C 12,0 C 11,3 km/h (2 Bft)
01.06.2013 20:05 12,1 C 83 % 1015,1 hPa 0,0 l/m 4,1 km/h (1 Bft) W-NW 295 0 min 0,025 mm 0,0 UV-I 18 W/m 9,3 C 12,1 C 16,1 km/h (3 Bft)
01.06.2013 20:10 12,0 C 83 % 1015,2 hPa 0,0 l/m 5,4 km/h (1 Bft) NW 317 0 min 0,000 mm 0,0 UV-I 12 W/m 9,2 C 12,0 C 14,5 km/h (3 Bft)
01.06.2013 20:15 12,0 C 83 % 1015,2 hPa 0,0 l/m 3,9 km/h (1 Bft) NW 323 0 min 0,000 mm 0,0 UV-I 12 W/m 9,2 C 12,0 C 12,9 km/h (3 Bft)
01.06.2013 20:20 11,9 C 83 % 1015,3 hPa 0,0 l/m 6,7 km/h (2 Bft) NW 317 0 min 0,000 mm 0,0 UV-I 9 W/m 9,1 C 11,7 C 14,5 km/h (3 Bft)
01.06.2013 20:25 11,9 C 83 % 1015,3 hPa 0,0 l/m 6,4 km/h (2 Bft) W-NW 289 0 min 0,000 mm 0,0 UV-I 9 W/m 9,1 C 11,9 C 17,7 km/h (3 Bft)
01.06.2013 20:30 11,8 C 83 % 1015,4 hPa 0,0 l/m 6,1 km/h (2 Bft) W-SW 253 0 min 0,000 mm 0,0 UV-I 11 W/m 9,0 C 11,8 C 14,5 km/h (3 Bft)
01.06.2013 20:35 11,8 C 83 % 1015,4 hPa 0,0 l/m 3,4 km/h (1 Bft) W-NW 284 0 min 0,000 mm 0,0 UV-I 9 W/m 9,0 C 11,8 C 11,3 km/h (2 Bft)
01.06.2013 20:40 11,8 C 83 % 1015,5 hPa 0,0 l/m 4,9 km/h (1 Bft) W 273 0 min 0,000 mm 0,0 UV-I 11 W/m 9,0 C 11,8 C 12,9 km/h (3 Bft)
01.06.2013 20:45 11,8 C 83 % 1015,6 hPa 0,0 l/m 5,1 km/h (1 Bft) N 5 0 min 0,000 mm 0,0 UV-I 12 W/m 9,0 C 11,8 C 14,5 km/h (3 Bft)
01.06.2013 20:50 11,8 C 83 % 1015,7 hPa 0,0 l/m 5,6 km/h (1 Bft) W-NW 299 0 min 0,000 mm 0,0 UV-I 12 W/m 9,0 C 11,8 C 16,1 km/h (3 Bft)
01.06.2013 20:55 11,8 C 83 % 1015,8 hPa 0,0 l/m 4,7 km/h (1 Bft) NW 321 0 min 0,000 mm 0,0 UV-I 9 W/m 9,0 C 11,8 C 12,9 km/h (3 Bft)
01.06.2013 21:00 11,8 C 83 % 1015,8 hPa 0,0 l/m 5,9 km/h (2 Bft) W-NW 282 0 min 0,000 mm 0,0 UV-I 9 W/m 9,0 C 11,8 C 14,5 km/h (3 Bft)
01.06.2013 21:05 11,8 C 83 % 1015,9 hPa 0,0 l/m 5,9 km/h (2 Bft) W 263 0 min 0,025 mm 0,0 UV-I 5 W/m 9,0 C 11,8 C 11,3 km/h (2 Bft)
01.06.2013 21:10 11,7 C 83 % 1016,1 hPa 0,0 l/m 1,1 km/h (1 Bft) W-NW 285 0 min 0,000 mm 0,0 UV-I 0 W/m 8,9 C 11,7 C 4,8 km/h (1 Bft)
01.06.2013 21:15 11,7 C 83 % 1016,0 hPa 0,0 l/m 3,1 km/h (1 Bft) N-NO 32 0 min 0,000 mm 0,0 UV-I 0 W/m 8,9 C 11,7 C 14,5 km/h (3 Bft)
01.06.2013 21:20 11,7 C 83 % 1016,1 hPa 0,0 l/m 1,7 km/h (1 Bft) W 281 0 min 0,000 mm 0,0 UV-I 0 W/m 8,9 C 11,7 C 6,4 km/h (2 Bft)
01.06.2013 21:25 11,7 C 83 % 1016,2 hPa 0,0 l/m 6,4 km/h (2 Bft) W-NW 284 0 min 0,000 mm 0,0 UV-I 0 W/m 8,9 C 11,7 C 16,1 km/h (3 Bft)
01.06.2013 21:30 11,7 C 83 % 1016,4 hPa 0,0 l/m 4,1 km/h (1 Bft) W-NW 294 0 min 0,000 mm 0,0 UV-I 0 W/m 8,9 C 11,7 C 14,5 km/h (3 Bft)
01.06.2013 21:35 11,6 C 83 % 1016,4 hPa 0,0 l/m 9,4 km/h (2 Bft) NW 313 0 min 0,000 mm 0,0 UV-I 0 W/m 8,8 C 9,7 C 22,5 km/h (4 Bft)
01.06.2013 21:40 11,6 C 83 % 1016,5 hPa 0,0 l/m 6,3 km/h (2 Bft) NW 320 0 min 0,000 mm 0,0 UV-I 0 W/m 8,8 C 11,6 C 14,5 km/h (3 Bft)
01.06.2013 21:45 11,6 C 83 % 1016,5 hPa 0,0 l/m 4,3 km/h (1 Bft) W-NW 302 0 min 0,000 mm 0,0 UV-I 0 W/m 8,8 C 11,6 C 11,3 km/h (2 Bft)
01.06.2013 21:50 11,6 C 84 % 1016,6 hPa 0,0 l/m 3,7 km/h (1 Bft) W 281 0 min 0,000 mm 0,0 UV-I 0 W/m 9,0 C 11,6 C 11,3 km/h (2 Bft)
01.06.2013 21:55 11,5 C 84 % 1016,6 hPa 0,0 l/m 4,0 km/h (1 Bft) W-NW 290 0 min 0,000 mm 0,0 UV-I 0 W/m 8,9 C 11,5 C 12,9 km/h (3 Bft)
01.06.2013 22:00 11,4 C 84 % 1016,6 hPa 0,0 l/m 8,7 km/h (2 Bft) NW 305 0 min 0,000 mm 0,0 UV-I 0 W/m 8,8 C 9,9 C 17,7 km/h (3 Bft)
01.06.2013 22:05 11,4 C 84 % 1016,6 hPa 0,0 l/m 4,2 km/h (1 Bft) NW 306 0 min 0,000 mm 0,0 UV-I 0 W/m 8,8 C 11,4 C 11,3 km/h (2 Bft)
01.06.2013 22:10 11,4 C 84 % 1016,6 hPa 0,0 l/m 9,3 km/h (2 Bft) W-NW 302 0 min 0,000 mm 0,0 UV-I 0 W/m 8,8 C 9,5 C 22,5 km/h (4 Bft)
01.06.2013 22:15 11,3 C 84 % 1016,6 hPa 0,0 l/m 6,6 km/h (2 Bft) NW 320 0 min 0,000 mm 0,0 UV-I 0 W/m 8,7 C 11,2 C 17,7 km/h (3 Bft)
01.06.2013 22:20 11,3 C 84 % 1016,5 hPa 0,0 l/m 7,8 km/h (2 Bft) SW 221 0 min 0,000 mm 0,0 UV-I 0 W/m 8,7 C 10,3 C 17,7 km/h (3 Bft)
01.06.2013 22:25 11,3 C 84 % 1016,6 hPa 0,0 l/m 8,7 km/h (2 Bft) NW 318 0 min 0,000 mm 0,0 UV-I 0 W/m 8,7 C 9,8 C 20,9 km/h (4 Bft)
01.06.2013 22:30 11,3 C 85 % 1016,6 hPa 0,0 l/m 6,0 km/h (2 Bft) W 265 0 min 0,000 mm 0,0 UV-I 0 W/m 8,9 C 11,3 C 11,3 km/h (2 Bft)
01.06.2013 22:35 11,2 C 85 % 1016,5 hPa 0,0 l/m 7,9 km/h (2 Bft) W-NW 283 0 min 0,000 mm 0,0 UV-I 0 W/m 8,8 C 10,2 C 19,3 km/h (3 Bft)
01.06.2013 22:40 11,1 C 85 % 1016,6 hPa 0,0 l/m 7,0 km/h (2 Bft) NW 319 0 min 0,000 mm 0,0 UV-I 0 W/m 8,7 C 10,7 C 16,1 km/h (3 Bft)
01.06.2013 22:45 11,1 C 85 % 1016,6 hPa 0,0 l/m 3,7 km/h (1 Bft) W-SW 251 0 min 0,000 mm 0,0 UV-I 0 W/m 8,7 C 11,1 C 9,7 km/h (2 Bft)
01.06.2013 22:50 11,1 C 85 % 1016,6 hPa 0,0 l/m 3,6 km/h (1 Bft) W 270 0 min 0,000 mm 0,0 UV-I 0 W/m 8,7 C 11,1 C 9,7 km/h (2 Bft)
01.06.2013 22:55 11,1 C 85 % 1016,7 hPa 0,0 l/m 5,3 km/h (1 Bft) W 263 0 min 0,000 mm 0,0 UV-I 0 W/m 8,7 C 11,1 C 8,0 km/h (2 Bft)
01.06.2013 23:00 11,0 C 84 % 1016,7 hPa 0,0 l/m 6,8 km/h (2 Bft) W 260 0 min 0,000 mm 0,0 UV-I 0 W/m 8,4 C 10,7 C 14,5 km/h (3 Bft)
01.06.2013 23:05 10,9 C 84 % 1016,7 hPa 0,0 l/m 8,3 km/h (2 Bft) S-SO 165 0 min 0,026 mm 0,0 UV-I 0 W/m 8,3 C 9,6 C 17,7 km/h (3 Bft)
01.06.2013 23:10 10,9 C 84 % 1016,7 hPa 0,0 l/m 4,2 km/h (1 Bft) W 281 0 min 0,000 mm 0,0 UV-I 0 W/m 8,3 C 10,9 C 11,3 km/h (2 Bft)
01.06.2013 23:15 10,9 C 83 % 1016,7 hPa 0,0 l/m 9,5 km/h (2 Bft) W 272 0 min 0,000 mm 0,0 UV-I 0 W/m 8,1 C 8,9 C 20,9 km/h (4 Bft)
01.06.2013 23:20 10,8 C 83 % 1016,7 hPa 0,0 l/m 7,2 km/h (2 Bft) W 271 0 min 0,000 mm 0,0 UV-I 0 W/m 8,0 C 10,2 C 16,1 km/h (3 Bft)
01.06.2013 23:25 10,8 C 83 % 1016,9 hPa 0,0 l/m 3,8 km/h (1 Bft) N 5 0 min 0,000 mm 0,0 UV-I 0 W/m 8,0 C 10,8 C 14,5 km/h (3 Bft)
01.06.2013 23:30 10,8 C 83 % 1017,0 hPa 0,0 l/m 2,5 km/h (1 Bft) W-SW 254 0 min 0,000 mm 0,0 UV-I 0 W/m 8,0 C 10,8 C 8,0 km/h (2 Bft)
01.06.2013 23:35 10,8 C 83 % 1017,1 hPa 0,0 l/m 2,5 km/h (1 Bft) W-NW 290 0 min 0,000 mm 0,0 UV-I 0 W/m 8,0 C 10,8 C 9,7 km/h (2 Bft)
01.06.2013 23:40 10,8 C 82 % 1017,2 hPa 0,0 l/m 6,7 km/h (2 Bft) W-NW 303 0 min 0,000 mm 0,0 UV-I 0 W/m 7,9 C 10,6 C 14,5 km/h (3 Bft)
01.06.2013 23:45 10,8 C 82 % 1017,1 hPa 0,0 l/m 3,1 km/h (1 Bft) W-NW 300 0 min 0,000 mm 0,0 UV-I 0 W/m 7,9 C 10,8 C 9,7 km/h (2 Bft)
01.06.2013 23:50 10,8 C 82 % 1017,2 hPa 0,0 l/m 10,1 km/h (2 Bft) N-NW 348 0 min 0,000 mm 0,0 UV-I 0 W/m 7,9 C 8,4 C 22,5 km/h (4 Bft)
01.06.2013 23:55 10,8 C 82 % 1017,1 hPa 0,0 l/m 6,5 km/h (2 Bft) NW 304 0 min 0,000 mm 0,0 UV-I 0 W/m 7,9 C 10,8 C 16,1 km/h (3 Bft)
_ Min-Zeit 23:20 13:25 00:10 - 21:10 - - - - - - 23:40 23:50 21:10
Minimum _ 10,8 C 64 % 1007,9 hPa - 1,1 km/h (1 Bft) - - - - - - 7,9 C 8,4 C 4,8 km/h (1 Bft)
_ Max-Zeit 13:25 04:35 23:40 00:00 14:40 - - 11:25 14:05 13:05 13:10 13:20 13:00 16:45
Maximum _ 18,1 C 87 % 1017,2 hPa 0,0 l/m 17,7 km/h
NW (3 Bft)
- - 5 min 0,457 mm 6,9 UV-I 1201 W/m 11,8 C 17,3 C 38,6 km/h
W (5 Bft)
Durchschnitt _ 13,4 C 81 % 1011,9 hPa #0,0 l/m 7,4 km/h (2 Bft) W-NW - #1:50 h #2,464 mm 2,5 UV-I 242 W/m 10,3 C 12,5 C 17,7 km/h (3 Bft)